User: anonymous   Login
Location: Dittelbrunn
(50.0738°N, 10.2196°E)
Time: 10:00:30
(UTC+00:00)
Language:

Cosmos 1844 - Orbit

View from above orbital plane
View from above orbital plane
View from above satellite
View from above satellite

Ground track
Ground track

The orbit data is extracted from the following two-line orbital elements,

1 17973U 87041A   20336.51352364 -.00000306 +00000-0 -13462-3 0  9990
2 17973 070.8966 130.9441 0029992 025.6064 334.6535 14.14113848731534
Epoch (UTC): 01 December 2020 12:19:28
Eccentricity: 0.0029992
inclination: 70.8966°
perigee height: 823 km
apogee height: 867 km
right ascension of ascending node: 130.9441°
argument of perigee: 25.6064°
revolutions per day: 14.14113848
mean anomaly at epoch: 334.6535°
orbit number at epoch: 73153

The dashed part of the orbit path shows where the satellite is in the earth's shadow,  

DLR